Regional Weather Roundup
Issued by NWS Mobile, AL

Home | Current Version | Previous Version | Text Only | Print | Product List | Glossary On
Versions: 1 2 3 4 5 6 7 8 9 10 11 12 13 14 15 16 17 18 19 20 21 22 23 24 25 26 27 28 29 30 31 32 33 34 35 36 37 38 39 40 41 42 43 44 45 46 47 48 49 50
000
ASUS44 KMOB 021316
RWRMOB
REGIONAL WEATHER ROUNDUP
NATIONAL WEATHER SERVICE MOBILE AL
800 AM CDT THU JUL 02 2015

ALZ061>064-021400-
COASTAL ALABAMA


CITY           SKY/WX    TMP DP  RH WIND       PRES   REMARKS
MOBILE REG APT PTSUNNY   77  73  87 SW8       30.11R
BROOKLEY FIELD PTSUNNY   78  72  81 SW5       30.11R
GULF SHORES    NOT AVBL

$$

ALZ051>060-021400-
INTERIOR SOUTHWEST AND SOUTH CENTRAL ALABAMA


CITY           SKY/WX    TMP DP  RH WIND       PRES   REMARKS
ANDALUSIA/OPP  MOSUNNY   80  72  76 SW3       30.08S
EVERGREEN      MOSUNNY   76  72  87 VRB5      30.09R
FLORALA        PTSUNNY   77  72  84 SW6       30.11R
GREENVILLE     FAIR      74  70  87 VRB5      30.07S

$$

FLZ001>006-021400-
WESTERN FLORIDA PANHANDLE


CITY           SKY/WX    TMP DP  RH WIND       PRES   REMARKS
CRESTVIEW      PTSUNNY   78  73  84 S5        30.10R
DESTIN         MOSUNNY   84  72  67 VRB5      30.09R
DUKE FIELD     FAIR      82  71  71 SW8       30.08R
MARY ESTHER    MOSUNNY   83  72  69 VRB6      30.07R
MILTON         PTSUNNY   81  74  79 SW5       30.09R
PENSACOLA      PTSUNNY   81  74  79 SW10      30.08R
NAS PENSACOLA  PTSUNNY   79  70  74 SW9G22    30.09R
VALPARAISO     PTSUNNY   82  73  74 SW5       30.09R

$$

...MARINE OBSERVATIONS...

STATION/POSITION TIME  SKY/WX   TEMP    WIND        PRES    VSBY
                                AIR SEA DIR/SP/G
                 (UTC)          (F)     (DEG/KT/KT) (MB)    (MI)
PASCAGOULA       1200            79     220/ 10/ 17 1018.3R
PETIT BOIS ISL   1200            79     220/ 13/ 15 1019.0R
E DAUPHIN ISLAND 1200            80     220/  8/ 12 1018.0R
MIDDLE BAY LIGHT 1200            79     250/ 12     1017.3R
USCG MOBILE BAY  1200            78 83  250/  5/  8 1017.3R
STATE DOCKS      1200            78 85              1018.1R
MEAHER PARK      1300            80     230/ 10     1018.6R
FORT MORGAN      1200            79     260/ 19/ 22 1017.7R
12 S ORANGE BCH  1250            81 82  240/ 14/ 16 1018.5R
WVE H/P(F/S)=  2/ 3

PENSACOLA BAY    1200            82 85  220/  4/  7 1018.2F
64 S DAUPHIN ISL 1250            79 84  130/  8/ 14 1020.4F
WVE H/P(F/S)=  3/ 4

67 S FORT MORGAN 1230            78                 1020.3F
115 SE PENSACOLA 1250            82 83   CALM  /  2 1019.6R
WVE H/P(F/S)=  2/ 4

MID GULF/42001   1250            84 85  100/ 12/ 14 1018.9R
WVE H/P(F/S)=  2/ 4

EAST GULF/42003  1250            85 85   80/ 10/ 14 1018.8R
WVE H/P(F/S)=  3/ 7


$$

...NEARBY LOCATIONS

CITY           SKY/WX    TMP DP  RH WIND       PRES   REMARKS
GULFPORT       CLOUDY    79  72  79 VRB3      30.08R
BILOXI         PTSUNNY   80  74  79 SW8       30.09R HAZE
PASCAGOULA     PTSUNNY   79  73  82 SW5       30.10R
HATTIESBURG    CLOUDY    76  71  85 CALM      30.11R
LAUREL         CLOUDY    73  61  64 CALM      30.11R
MERIDIAN       CLOUDY    73  71  93 S8        30.06R
MERIDIAN NAS   CLOUDY    76  71  85 SW7       30.05R
MONTGOMERY     PTSUNNY   76  70  82 SW6       30.06R
MAXWELL AFB    CLOUDY    75  71  85 VRB7      30.05R
TROY           CLOUDY    75  70  84 SW7       30.08R
FORT RUCKER    PTSUNNY   75  71  87 SW3       30.08R
DALEVILLE      CLOUDY    74  70  89 SW6       30.09R
DOTHAN         CLOUDY    75  69  81 SW7       30.13R

$$

...OTHER SURROUNDING LOCATIONS...

CITY           SKY/WX    TMP DP  RH WIND       PRES   REMARKS
BIRMINGHAM     CLOUDY    74  71  91 S8        30.06R
TUSCALOOSA     CLOUDY    75  71  87 S7        30.03R
COLUMBUS GA    MOSUNNY   74  68  81 VRB6      30.06R
PANAMA CITY    NOT AVBL
TALLAHASSEE    MOSUNNY   81  73  76 W9        30.10R
BATON ROUGE    CLOUDY    77  73  87 CALM      30.08R
NEW ORLEANS    CLOUDY    79  73  82 S7        30.08S
SLIDELL        LGT RAIN  78  77  96 S5        30.07S
JACKSON        CLOUDY    76  70  82 S7        30.06R
MCCOMB         CLOUDY    75  72  90 SW5       30.09R

$$

...SURROUNDING MARINE OBSERVATIONS...

STATION/POSITION TIME  SKY/WX   TEMP    WIND        PRES    VSBY
                                AIR SEA DIR/SP/G
                 (UTC)          (F)     (DEG/KT/KT) (MB)    (MI)
WAVELAND         1200            78 83  250/  4/  7 1018.6R
PASCAGOULA RGN A 1200            79     230/ 14/ 17 1017.9R
PASCAGOULA PORT  1200               83                N/A
GRAND ISLE       1200            83 85  200/  5/ 10 1018.8R
SOUTHWEST PASS   1200            82     150/  7/  7 1019.5R
PILOT STATION E  1200            82 83  140/  4/  8 1019.6R
SHELL BEACH      1200            78 82  220/  2/  3 1018.2R
PANAMA CITY      1200            81 83  230/ 10/ 12 1018.5R
APALACHICOLA     1200            78 85  360/  2/  2 1018.7R
TYNDALL TOWER C  1200            82     300/  6/  7 1018.9R
S APLCHCLA/42036 1250            84 85  330/  4/  6 1019.6R
WVE H/P(F/S)=  2/ 9


$$




USA.gov is the U.S. government's official web portal to all federal, state and local government web resources and services.